Overview Statistics Trail Chart Weather Telemetry Raw packets
 

This is the latest recevied weather packets stored in our database for station/object HS5BOG-13. If no packets are shown the sender has not sent any weather packets the latest 10 day(s).

<< 11 12 13 14 15 16 17 >>
Time Temp. Humidity Pressure Rain* Wind** Luminosity Snow
1788335476 30.56° C 79% 988.8 hPa - - - -
1788334871 31.11° C 76% 988.9 hPa - - - -
1788334265 31.11° C 78% 989.1 hPa - - - -
1788333660 30.56° C 80% 989.3 hPa - - - -
1788333054 30.56° C 83% 989.5 hPa - - - -
1788332449 30.56° C 81% 989.7 hPa - - - -
1788331843 30.56° C 82% 989.8 hPa - - - -
1788331238 30.56° C 83% 990 hPa - - - -
1788330632 30.56° C 82% 990.1 hPa - - - -
1788330027 30° C 85% 990.3 hPa - - - -
1788329422 30° C 84% 990.6 hPa - - - -
1788328816 30° C 84% 990.8 hPa - - - -
1788328210 30° C 79% 991 hPa - - - -
1788327605 30° C 81% 991.2 hPa - - - -
1788326999 30° C 81% 991.4 hPa - - - -
1788326394 30° C 79% 991.6 hPa - - - -
1788325788 29.44° C 85% 991.6 hPa - - - -
1788325183 29.44° C 83% 991.9 hPa - - - -
1788324577 29.44° C 87% 991.9 hPa - - - -
1788323972 29.44° C 85% 992.1 hPa - - - -
1788323366 29.44° C 84% 992.2 hPa - - - -
1788322761 28.89° C 87% 992.4 hPa - - - -
1788322155 28.89° C 84% 992.5 hPa - - - -
1788321550 28.89° C 90% 992.6 hPa - - - -
1788320945 28.89° C 93% 992.7 hPa - - - -

* Rain since midnight (hover to see other rain measurements)
** Current wind speed in m/s (hover to see current wind gust speed)